Location: ???? ?????
(30.0052°N, 31.2891°E)
Time: 22:32:32
(UTC+00:00)

Cosmos 2228 - Pass Details

Date: 26 May 2022
Orbit: 586 x 617 km, 82.5° (Epoch: 04 July)

Event Time Altitude Azimuth Distance (km) Brightness Sun altitude
Rises 00:24:09 0° 1° (N) 2,874 7.2 -27.1°
Reaches altitude 10° 00:26:27 10° 7° (N) 1,962 6.3 -26.8°
Maximum altitude 00:30:38 48° 82° (E) 795 3.8 -26.2°
Enters shadow 00:31:07 45° 104° (ESE) 821 3.8 -26.1°
